This is the latest recevied weather packets stored in our database for station/object KQ4OSL. If no packets are shown the sender has not sent any weather packets the latest 10 day(s).
| Time | Temp. | Humidity | Pressure | Rain* | Wind** | Luminosity | Snow |
|---|---|---|---|---|---|---|---|
| 1778014790 | 24.44° C | 47% | 1015.1 hPa | 0 mm | - | 394 W/m² | - |
| 1778014489 | 24.44° C | 46% | 1015.4 hPa | 0 mm | - | 403 W/m² | - |
| 1778014185 | 25° C | 47% | 1015.3 hPa | 0 mm | - | 398 W/m² | - |
| 1778013883 | 24.44° C | 47% | 1015.5 hPa | 0 mm | - | 422 W/m² | - |
| 1778013580 | 24.44° C | 46% | 1015.4 hPa | 0 mm | - | 435 W/m² | - |
| 1778013276 | 24.44° C | 45% | 1015.4 hPa | 0 mm | - | 451 W/m² | - |
| 1778012973 | 25° C | 44% | 1015.4 hPa | 0 mm | - | 469 W/m² | - |
| 1778012669 | 24.44° C | 45% | 1015.7 hPa | 0 mm | - | 466 W/m² | - |
| 1778012366 | 25° C | 44% | 1015.5 hPa | 0 mm | - | 503 W/m² | - |
| 1778012063 | 25° C | 44% | 1015.7 hPa | 0 mm | - | 258 W/m² | - |
| 1778011761 | 24.44° C | 43% | 1015.7 hPa | 0 mm | - | 525 W/m² | - |
| 1778011458 | 24.44° C | 45% | 1015.9 hPa | 0 mm | - | 544 W/m² | - |
| 1778011153 | 24.44° C | 45% | 1016 hPa | 0 mm | - | 542 W/m² | - |
| 1778010851 | 24.44° C | 43% | 1015.9 hPa | 0 mm | - | 571 W/m² | - |
| 1778010548 | 24.44° C | 44% | 1015.8 hPa | 0 mm | - | 579 W/m² | - |
| 1778010246 | 24.44° C | 45% | 1016.1 hPa | 0 mm | - | 549 W/m² | - |
| 1778009946 | 25° C | 46% | 1016.1 hPa | 0 mm | - | 592 W/m² | - |
| 1778009644 | 25° C | 46% | 1016 hPa | 0 mm | - | 610 W/m² | - |
| 1778009341 | 24.44° C | 49% | 1016 hPa | 0 mm | - | 620 W/m² | - |
| 1778009039 | 25° C | 45% | 1016.2 hPa | 0 mm | - | 621 W/m² | - |
| 1778008736 | 24.44° C | 45% | 1016.1 hPa | 0 mm | - | 631 W/m² | - |
| 1778008435 | 24.44° C | 45% | 1016.2 hPa | 0 mm | - | 621 W/m² | - |
| 1778008131 | 23.89° C | 47% | 1016.3 hPa | 0 mm | - | 601 W/m² | - |
| 1778007827 | 23.89° C | 47% | 1016.4 hPa | 0 mm | - | 655 W/m² | - |
| 1778007522 | 23.89° C | 49% | 1016.1 hPa | 0 mm | - | 671 W/m² | - |
* Rain latest hour (hover to see other rain measurements)
** Current wind speed in m/s (hover to see current wind gust speed)